Regional Weather Roundup
Issued by NWS Raleigh/Durham, NC

Home | Current Version | Previous Version | Text Only | Print | Product List | Glossary On
Versions: 1 2 3 4 5 6 7 8 9 10 11 12 13 14 15 16 17 18 19 20 21 22 23 24 25 26 27 28 29 30 31 32 33 34 35 36 37 38 39 40 41 42 43 44 45 46 47 48 49 50
000
ASUS42 KRAH 041710
RWRRAH
NORTH CAROLINA WEATHER ROUNDUP
NATIONAL WEATHER SERVICE RALEIGH NC
100 PM EDT TUE AUG 04 2015

NOTE: "FAIR" INDICATES FEW OR NO CLOUDS BELOW 12,000 FEET WITH NO
SIGNIFICANT WEATHER AND/OR OBSTRUCTIONS TO VISIBILITY.

NCZ001-053-055-056-065-067-041800-
WESTERN NORTH CAROLINA

CITY           SKY/WX    TMP DP  RH WIND       PRES   REMARKS
ASHEVILLE      SUNNY     88  61  40 N9        30.10S
JEFFERSON      MOSUNNY   81  58  45 W13       30.15S
MORGANTON      SUNNY     92  60  34 W5        30.07S
HICKORY        SUNNY     91  59  33 VRB3      30.02F
RUTHERFORDTON  SUNNY     90  61  37 CALM      30.02F
MOUNT AIRY     SUNNY     90  67  46 SW5       30.04F
BOONE          MOSUNNY   79  60  51 NW7G16    30.16S
$$

NCZ021-022-025-041-071-084-088-041800-
CENTRAL NORTH CAROLINA

CITY           SKY/WX    TMP DP  RH WIND       PRES   REMARKS
CHARLOTTE      MOSUNNY   91  64  40 S5        30.00F
GREENSBORO     PTSUNNY   90  68  48 S9        30.00F
WINSTON-SALEM  SUNNY     90  65  43 S5        30.02F
RALEIGH-DURHAM MOSUNNY   92  72  51 VRB6      29.99F HX  99
FORT BRAGG     MOSUNNY   89  73  58 E8        29.96F HX  96
FAYETTEVILLE   MOSUNNY   91  72  53 E12       29.97F HX  98
BURLINGTON     MOSUNNY   90  70  51 SW8       29.99F HX  95
LAURINBURG     MOSUNNY   90  69  50 SE8       29.97F
$$

NCZ011-015-027-028-043-044-047-080-103-041800-
NORTHEASTERN NORTH CAROLINA

CITY           SKY/WX    TMP DP  RH WIND       PRES   REMARKS
ROCKY MT-WILSO PTSUNNY   91  71  51 S9G18     29.99F HX  97
GREENVILLE     PTSUNNY   81  73  78 S18G28    30.03S
WASHINGTON     CLOUDY    81  74  81 S5        30.03S
ELIZABETH CITY MOSUNNY   89  74  60 S16G25    29.99F HX  98
MANTEO         RAIN      83  76  79 SW18      30.01F
CAPE HATTERAS  LGT RAIN  79  73  82 SW12G18   30.04F
$$

NCZ078-087-090-091-093-098-101-041800-
SOUTHEASTERN NORTH CAROLINA

CITY           SKY/WX    TMP DP  RH WIND       PRES   REMARKS
LUMBERTON      MOSUNNY   91  71  51 E16       29.95F HX  97
GOLDSBORO      MOSUNNY   87  74  65 SE8       29.97F
KINSTON        MOSUNNY   84  73  70 S8        30.01S
KENANSVILLE      N/A    N/A N/A N/A S8        30.00F
NEW BERN       CLOUDY    84  75  74 S8        30.02F
CHERRY POINT   CLOUDY    84  75  74 S12G24    30.02F
BEAUFORT       CLOUDY    82  76  81 S14       30.02F
JACKSONVILLE   CLOUDY    82  75  79 S15       30.00F
WILMINGTON     CLOUDY    82  73  74 SE12      29.98F
$$



USA.gov is the U.S. government's official web portal to all federal, state and local government web resources and services.